TITAN 3C TRANSTAGE DEB, 1883

Orbit data source: Space-Track

TITAN 3C TRANSTAGE DEB, 1883 is space debris in LEO originally from a launch on Fri, 15 Oct 1965 UTC launched from the Air Force Eastern Test Range (AFETR). Debris objects in space refer to the collection of defunct objects orbiting the Earth. Examples of debris include non-operational satellites, rocket bodies, and fragments generated from explosions, collisions, or faulty payload assembly.

Loading next visibility...
Identifier
1883, 1965-082EY
Orbit
LEO
Country
Flag of USUS
Related business
Manufacturer
Unknown
Mission
Spacecraft
Bus & Motor
Unknown
Mass
Unknown
Launch date (UTC)
1965-10-15 (60 years ago)
Launch vehicle
Unknown
Launch site
Air Force Eastern Test Range (AFETR)
Object type
Payload
Rocket body
Debris
Shape & HBR
Unknown shape, 0.1 m
Radar Cross Section
Small (<0.1 m²)

Expand to show TLE details & history
Last TLE update: 4 hours ago

TLE from 4 hours ago
0 TITAN 3C TRANSTAGE DEB
1 01883U 65082EY  26101.30146457  .00004620  00000-0  18850-3 0  9998
2 01883  32.0910 111.0375 0013182 140.1550 220.0082 15.22932787255097
Epoch: 2026-04-11T07:14Z
TLE epoch observation values (Epoch: 2026-04-11T07:14:06.538Z)
Latitude
-0.00001°
Longitude
162.98751°
Altitude
502.554 km
Speed
7.612 km/s
True Right ascension
07h 24m 08s
True Declination
0° 00' 00"
Sunlit
Object was in daylight at epoch
Visualization orbit readout
Latitude
Unknown
Longitude
Unknown
Altitude
Unknown
Speed
Unknown
Apparent Right ascension
Unknown
Apparent Declination
Unknown
Sunlit
N/A
Visualization observer readout
Local Sidereal Time
17:41:08
Azimuth
Unknown
Elevation
Unknown
Doppler factor
Unknown
Orbital elements
Apogee altitude
509.767 km
Perigee altitude
491.632 km
Semi-major axis
6,878.836 km
Eccentricity
0.00132
Inclination
32.091°
RAAN
111.0375°
Arg. of periapsis
140.155°
True anomaly
219.91121°
Mean anomaly
220.0082°
Eccentric anomaly
219.95969°
Mean motion
3.80426 °/min
Orbital period
94.63 mins
BSTAR
0.0001885

Documentation

Showing up to 5 results
|